Point Lay, AK

8:58 AM AKST on February 08, 2016 (GMT -0900)
Point Lay

Weather History for PPIZ - January, 2014

Change the Weather History Date:

Saturday, January 11, 2014

  Actual Average Record
Temperature  
Mean Temperature -6 °F -  
Max Temperature -2 °F -5 °F 19 °F (2003)
Min Temperature -9 °F -14 °F -44 °F (2008)
Degree Days  
Heating Degree Days 70    
Moisture  
Dew Point -9 °F    
Average Humidity 81    
Maximum Humidity 85    
Minimum Humidity 77    
Precipitation  
Precipitation 0.00 in - - ()
Sea Level Pressure  
Sea Level Pressure 29.66 in    
Wind  
Wind Speed 1 mph (NW)    
Max Wind Speed 4 mph    
Max Gust Speed -    
Visibility 9 miles    
Events Snow    
Averages and records for this station are not official NWS values.
T = Trace of Precipitation, MM = Missing Value Source: NWS Daily Summary

Daily Weather History Graph

Daily Weather History Graph

Search for Another Location

Airport or City:

Trip Planner

Search our weather history database for the weather conditions in past years. The results will help you decide how hot, cold, wet, or windy it might be!

Date:

Astronomy

Jan. 11, 2014 Rise Set
Actual Time 1:27 PM AKST 2:32 PM AKST
Civil Twilight 11:15 AM AKST 4:45 PM AKST
Nautical Twilight 9:42 AM AKST 6:18 PM AKST
Astronomical Twilight 8:27 AM AKST 7:33 PM AKST
Moon 12:19 PM AKST (1/11) 8:46 AM AKST (1/11)
Length of Visible Light 5h 29m
Length of Day
1h 04m
Waxing Gibbous, 84% of the Moon is Illuminated
Jan 11
Waxing Gibbous
Jan 15
Full
Jan 23
Last Quarter
Jan 30
New
Feb 6
First Quarter

Hourly Weather History & Observations

Time (AKST) Temp. Windchill Dew Point Humidity Pressure Visibility Wind Dir Wind Speed Gust Speed Precip Events Conditions
12:56 AM -4.9 °F - -9.9 °F 79% 29.87 in 10.0 mi Calm Calm - N/A   Mostly Cloudy
1:07 AM -5.8 °F - -9.4 °F 84% 29.85 in 10.0 mi Calm Calm - N/A   Overcast
1:56 AM -4.9 °F - -8.9 °F 83% 29.84 in 10.0 mi Calm Calm - N/A   Mostly Cloudy
2:16 AM -5.8 °F - -9.4 °F 84% 29.82 in 10.0 mi Calm Calm - N/A   Scattered Clouds
2:41 AM -5.8 °F - -9.4 °F 84% 29.81 in 10.0 mi Calm Calm - N/A   Mostly Cloudy
2:56 AM -7.6 °F - -13.0 °F 77% 29.80 in 10.0 mi Calm Calm - N/A   Mostly Cloudy
3:04 AM -9.4 °F - -14.8 °F 77% 29.80 in 10.0 mi Calm Calm - N/A   Scattered Clouds
3:19 AM -9.4 °F - -14.8 °F 77% 29.79 in 10.0 mi Calm Calm - N/A   Mostly Cloudy
3:56 AM -9.9 °F - -15.0 °F 78% 29.79 in 10.0 mi Calm Calm - N/A   Mostly Cloudy
4:56 AM -4.0 °F - -8.0 °F 83% 29.75 in 10.0 mi Calm Calm - N/A   Overcast
5:03 AM -4.0 °F - -7.6 °F 85% 29.73 in 10.0 mi Calm Calm - N/A   Overcast
5:56 AM -4.0 °F - -8.0 °F 83% 29.72 in 10.0 mi Calm Calm - N/A   Overcast
6:27 AM -4.0 °F - -7.6 °F 85% 29.69 in 10.0 mi Calm Calm - N/A   Overcast
6:56 AM -4.0 °F - -8.0 °F 83% 29.69 in 10.0 mi Calm Calm - N/A   Overcast
7:56 AM -4.0 °F - -8.9 °F 80% 29.67 in 10.0 mi Calm Calm - N/A   Overcast
8:35 AM -4.0 °F - -9.4 °F 78% 29.64 in 10.0 mi Calm Calm - N/A   Overcast
8:56 AM -4.0 °F - -9.4 °F 78% 29.63 in 10.0 mi Calm Calm - N/A   Overcast
9:56 AM -2.9 °F -11.2 °F -8.0 °F 79% 29.62 in 10.0 mi WNW 3.5 mph - N/A   Overcast
10:56 AM -4.0 °F -12.4 °F -8.9 °F 80% 29.61 in 8.0 mi NW 3.5 mph - 0.00 in Snow Light Snow
11:27 AM -4.0 °F - -9.4 °F 78% 29.59 in 6.0 mi Calm Calm - 0.00 in Snow Light Snow
11:39 AM -4.0 °F -12.4 °F -9.4 °F 78% 29.59 in 4.0 mi NW 3.5 mph - 0.00 in Snow Light Snow
11:56 AM -4.0 °F -12.4 °F -7.6 °F 85% 29.59 in 5.0 mi NW 3.5 mph - N/A Snow Light Snow
12:56 PM -2.9 °F -11.2 °F -8.0 °F 79% 29.59 in 6.0 mi NNW 3.5 mph - 0.00 in   Haze
1:56 PM -2.9 °F - -6.9 °F 83% 29.58 in 7.0 mi Calm Calm - 0.00 in Snow Light Snow
2:56 PM -2.2 °F - -7.6 °F 78% 29.56 in 4.0 mi Calm Calm - N/A Snow Light Snow
3:56 PM -2.9 °F - -6.9 °F 83% 29.56 in 10.0 mi Calm Calm - 0.00 in   Overcast
4:56 PM -2.9 °F -11.2 °F -6.9 °F 83% 29.56 in 10.0 mi NNW 3.5 mph - N/A   Overcast
5:56 PM -2.2 °F -10.4 °F -7.6 °F 78% 29.54 in 10.0 mi NNW 3.5 mph - N/A   Overcast
6:56 PM -2.9 °F -11.2 °F -6.9 °F 83% 29.55 in 10.0 mi NNW 3.5 mph - N/A   Overcast
7:56 PM -4.0 °F -12.4 °F -8.0 °F 83% 29.55 in 10.0 mi NNW 3.5 mph - N/A   Overcast
8:56 PM -4.0 °F -12.4 °F -9.4 °F 78% 29.54 in 10.0 mi NNW 3.5 mph - N/A   Overcast
9:56 PM -4.0 °F - -8.0 °F 83% 29.55 in 10.0 mi Calm Calm - N/A   Overcast
10:56 PM -2.9 °F -11.2 °F -8.0 °F 79% 29.56 in 10.0 mi NNW 3.5 mph - N/A   Overcast
11:56 PM -2.2 °F - -7.6 °F 78% 29.55 in 10.0 mi Calm Calm - N/A   Overcast